Content
SEND FEEDBACK

Daily
Averages
Monthly
Summary
United States of America

ADIN, CALIFORNIA


Home > North America > United States > California
Elevation: 6658 feet     Latitude: 41 12N     Longitude: 120 57W

WEATHER
 
SELECT A DAY
Number of Records: 161,202;   Date Range: 1/3/95 - 9/22/14
 
SHARE

PRINT THIS DATA

[ ← Previous Day ]
WEATHER ALMANAC - JANUARY 31, 2013
[ Next Day → ]
[ °C ]   °F
Weather ElementAverageHighLow
Temperature28.6 °F46.9 °F (2:55 pm)19.4 °F (7:22 am)
Dewpoint24.6 °F34 °F (3:55 pm)17.6 °F (7:22 am)
Humidity86.1 %100 % (8:23 am)59 % (2:55 pm)
Barometer30.37 in30.45 in (12:55 am)30.30 in (2:55 pm)
Wind Speed0.8 mph4.6 mph (3:55 am)
Weather ElementAverage
Visibility7.9 mi
Wind DirectionNNE (35.5 °)

Weather ElementTotal
Precipitation---
Heating Degree Days31.9 (Base 65)
Averaged from 29 records on January 31, 2013
WEATHER CONDITIONS BREAKOUT
WIND DIRECTION BREAKOUT
WEATHER BY HOUR - JANUARY 31, 2013
[ °C ]   °F
Local TimeTemperatureDewpointHumidityBarometerVisibilityWind DirectionWind SpeedGust SpeedPrecipitationEventsConditions
12:42 AM24.8 °F23.0 °F93 %30.38 in3.0 miNNE (30°)3.5 mphClear
12:55 AM25.0 °F23.0 °F92 %30.45 in4.0 miCalmClear
1:55 AM24.1 °F21.9 °F91 %30.43 in7.0 miCalmClear
2:55 AM21.9 °F21.0 °F96 %30.42 in5.0 miCalmClear
3:55 AM21.9 °F19.9 °F92 %30.40 in10.0 miNE (50°)4.6 mphClear
4:55 AM21.9 °F19.9 °F92 %30.40 in10.0 miCalmClear
5:55 AM21.0 °F19.9 °F96 %30.42 in10.0 miCalmClear
6:55 AM19.9 °F18.0 °F92 %30.43 in10.0 miCalmClear
7:22 AM19.4 °F17.6 °F93 %30.33 in2.5 miCalmPartly Cloudy
7:24 AM19.4 °F17.6 °F93 %30.33 in0.8 miCalmMist
7:55 AM21.0 °F19.9 °F96 %30.43 in2.0 miNW (320°)3.5 mphOvercast
8:14 AM21.2 °F19.4 °F93 %30.33 in10.0 miCalmMostly Cloudy
8:23 AM21.2 °F21.2 °F100 %30.34 in10.0 miCalmScattered Clouds
8:55 AM26.1 °F24.1 °F92 %30.42 in7.0 miCalmClear
9:55 AM30.9 °F27.0 °F85 %30.40 in10.0 miCalmClear
10:55 AM33.1 °F28.9 °F85 %30.40 in10.0 miWest (280°)3.5 mphClear
11:55 AM36.0 °F30.0 °F79 %30.38 in10.0 miWNW (290°)3.5 mphClear
12:55 PM42.1 °F32.0 °F67 %30.33 in10.0 miCalmClear
1:55 PM44.1 °F33.1 °F65 %30.31 in10.0 miCalmClear
2:55 PM46.9 °F33.1 °F59 %30.30 in10.0 miCalmClear
3:55 PM46.0 °F34.0 °F63 %30.30 in10.0 miCalmClear
4:55 PM43.0 °F33.1 °F68 %30.31 in10.0 miCalmClear
5:55 PM37.0 °F30.0 °F76 %30.33 in10.0 miCalmClear
6:55 PM33.1 °F28.9 °F85 %30.35 in10.0 miCalmClear
7:55 PM28.9 °F26.1 °F89 %30.37 in10.0 miENE (60°)3.5 mphClear
8:55 PM26.1 °F25.0 °F96 %30.37 in10.0 miCalmClear
9:55 PM26.1 °F23.0 °F88 %30.35 in5.0 miCalmClear
10:55 PM24.1 °F21.9 °F91 %30.37 in10.0 miCalmClear
11:55 PM24.1 °F21.9 °F91 %30.37 in4.0 miCalmClear
Hourly data recorded from KAAT, located miles away from Adin, California







STORIES FROM OUR PARTNERS